Precipitable_Water
1.18 1.23 1.26 1.29 1.35 1.37 1.39 1.49 1.54 1.55 1.50 1.49 1.59 1.42 1.32 1.28 1.20 1.26 1.19 1.14 1.08 0.94 0.89 0.88 0.86 0.83 0.83 0.80 0.81 0.79 0.75 0.74 0.72 0.72 0.70 0.72 0.77 0.78 0.76 0.77 0.78 0.77 0.79
1.25 1.23 1.22 1.22 1.24 1.32 1.38 1.51 1.56 1.54 1.56 1.55 1.54 1.44 1.36 1.38 1.39 1.24 1.17 1.11 1.04 0.90 0.84 0.86 0.88 0.84 0.84 0.86 0.83 0.80 0.76 0.75 0.74 0.72 0.72 0.74 0.75 0.78 0.78 0.77 0.78 0.79 0.80
1.21 1.20 1.22 1.24 1.27 1.31 1.45 1.52 1.58 1.60 1.58 1.58 1.48 1.46 1.37 1.39 1.33 1.22 1.12 1.06 1.01 0.88 0.83 0.88 0.90 0.88 0.85 0.85 0.84 0.80 0.78 0.74 0.76 0.73 0.74 0.75 0.75 0.75 0.77 0.80 0.82 0.82 0.83
1.25 1.17 1.21 1.30 1.42 1.39 1.44 1.51 1.53 1.53 1.54 1.52 1.40 1.45 1.41 1.38 1.18 1.14 1.02 0.95 0.90 0.90 0.84 0.85 0.92 0.89 0.88 0.90 0.85 0.81 0.79 0.77 0.77 0.77 0.78 0.76 0.77 0.79 0.82 0.85 0.87 0.89 0.90
1.27 1.14 1.14 1.31 1.40 1.42 1.42 1.53 1.53 1.52 1.52 1.46 1.34 1.46 1.40 1.30 1.16 1.06 0.96 0.94 0.86 0.89 0.87 0.90 0.92 0.91 0.90 0.91 0.87 0.84 0.82 0.82 0.82 0.81 0.81 0.81 0.83 0.85 0.86 0.88 0.92 0.96 0.96
1.29 1.16 1.12 1.29 1.40 1.41 1.46 1.53 1.49 1.53 1.47 1.41 1.38 1.40 1.34 1.26 1.09 0.97 0.93 0.95 0.86 0.88 0.88 0.92 0.96 1.00 0.96 0.89 0.91 0.86 0.86 0.86 0.85 0.85 0.86 0.88 0.89 0.90 0.90 0.91 0.93 0.96 0.98
1.24 1.18 1.12 1.27 1.44 1.40 1.46 1.54 1.51 1.44 1.44 1.45 1.38 1.26 1.24 1.12 0.99 0.99 1.00 0.93 0.88 0.89 0.94 0.95 0.98 0.96 0.95 0.90 0.90 0.93 0.92 0.93 0.93 0.92 0.94 0.96 0.96 0.95 0.95 0.98 0.99 0.98 0.98
1.23 1.15 1.15 1.25 1.41 1.40 1.44 1.47 1.45 1.41 1.42 1.44 1.26 1.16 1.04 0.98 1.01 0.90 0.93 0.94 0.91 0.94 0.93 0.95 0.89 0.89 0.91 0.90 0.85 0.89 0.95 0.99 1.01 1.02 1.02 1.02 1.02 1.03 1.01 1.02 1.03 1.02 1.03
1.23 1.12 1.23 1.29 1.38 1.45 1.44 1.42 1.45 1.40 1.32 1.37 1.39 1.14 1.00 0.90 0.92 0.93 0.88 0.90 0.99 0.99 0.95 0.94 0.95 0.95 0.91 0.92 0.90 0.85 0.90 0.97 1.02 1.08 1.09 1.08 1.09 1.11 1.11 1.10 1.13 1.15 1.12
1.13 1.08 1.25 1.31 1.38 1.46 1.44 1.41 1.47 1.42 1.38 1.26 1.35 1.26 1.15 1.03 0.79 0.71 0.89 0.90 0.94 0.95 0.98 0.97 0.96 0.99 0.94 0.94 0.96 0.94 0.88 0.90 0.96 1.02 1.07 1.09 1.11 1.13 1.17 1.20 1.19 1.20 1.20
1.00 1.13 1.28 1.31 1.33 1.44 1.44 1.46 1.45 1.44 1.42 1.32 1.29 1.24 1.10 1.03 0.93 0.75 0.69 0.78 0.96 0.96 0.93 0.94 0.98 0.98 0.97 0.96 0.97 0.97 0.97 0.95 0.92 0.91 0.98 1.09 1.19 1.21 1.18 1.16 1.15 1.16 1.19
0.96 1.13 1.24 1.31 1.41 1.42 1.43 1.48 1.48 1.44 1.40 1.37 1.35 1.27 1.06 0.98 0.92 0.81 0.79 0.81 0.78 0.85 0.90 0.95 0.96 1.02 1.00 0.99 1.01 1.01 0.99 0.96 0.98 1.02 1.04 1.07 1.13 1.16 1.21 1.23 1.25 1.25 1.18
0.97 1.09 1.22 1.30 1.44 1.46 1.49 1.50 1.46 1.43 1.42 1.35 1.33 1.26 1.14 1.11 1.08 1.05 1.00 0.93 0.88 0.94 0.95 0.98 0.98 1.01 1.05 1.04 1.01 0.99 0.98 1.00 1.07 1.08 1.11 1.11 1.12 1.12 1.12 1.12 1.14 1.16 1.16
1.02 1.15 1.23 1.34 1.41 1.49 1.50 1.47 1.44 1.46 1.44 1.39 1.34 1.30 1.20 1.10 1.12 1.06 0.98 1.02 0.96 1.01 1.10 1.07 1.10 1.07 1.06 1.04 1.03 1.04 1.06 1.04 1.06 1.10 1.11 1.12 1.13 1.13 1.15 1.14 1.11 1.11 1.12
1.07 1.18 1.31 1.43 1.48 1.47 1.46 1.47 1.43 1.42 1.42 1.39 1.35 1.31 1.22 1.16 1.07 1.08 1.08 1.04 0.98 0.88 0.92 1.08 1.09 1.15 1.14 1.13 1.11 1.14 1.15 1.14 1.12 1.12 1.13 1.13 1.13 1.15 1.15 1.14 1.13 1.10 1.09
1.12 1.23 1.31 1.43 1.45 1.47 1.45 1.45 1.41 1.42 1.38 1.38 1.36 1.30 1.21 1.16 1.06 1.06 1.14 1.15 1.10 1.04 0.86 0.99 1.05 1.14 1.22 1.26 1.28 1.24 1.24 1.23 1.22 1.20 1.17 1.15 1.13 1.13 1.12 1.11 1.12 1.10 1.09
1.19 1.26 1.33 1.39 1.43 1.41 1.44 1.42 1.42 1.40 1.33 1.35 1.34 1.24 1.15 1.14 1.15 1.18 1.11 1.09 1.14 1.11 0.93 0.95 1.05 1.12 1.16 1.16 1.17 1.18 1.18 1.17 1.22 1.20 1.17 1.15 1.11 1.12 1.12 1.14 1.12 1.08 1.08
1.23 1.26 1.34 1.35 1.38 1.40 1.41 1.39 1.37 1.37 1.34 1.30 1.28 1.27 1.19 1.22 1.21 1.20 1.19 1.13 1.11 1.08 0.96 0.87 0.95 0.97 1.04 1.05 1.07 1.08 1.12 1.15 1.14 1.14 1.12 1.11 1.14 1.15 1.16 1.15 1.12 1.09 1.09
1.19 1.23 1.30 1.31 1.32 1.34 1.34 1.38 1.37 1.31 1.28 1.31 1.32 1.22 1.15 1.12 1.11 1.11 1.12 1.15 1.15 1.08 1.01 0.90 0.90 0.99 1.00 1.07 1.08 1.07 1.05 1.07 1.11 1.14 1.15 1.17 1.17 1.17 1.15 1.14 1.13 1.14 1.15
1.18 1.21 1.28 1.30 1.30 1.32 1.33 1.34 1.33 1.31 1.28 1.23 1.20 1.24 1.26 1.25 1.20 1.18 1.15 1.11 1.08 1.00 0.94 0.91 0.90 0.87 0.88 0.94 0.98 0.95 0.94 1.06 1.08 1.20 1.21 1.19 1.16 1.14 1.16 1.17 1.15 1.12 1.14
1.15 1.20 1.24 1.27 1.29 1.28 1.27 1.24 1.23 1.22 1.21 1.22 1.28 1.30 1.29 1.25 1.20 1.14 1.09 1.05 0.99 0.92 0.91 0.86 0.79 0.80 0.85 0.93 0.96 1.07 1.08 1.11 1.17 1.19 1.15 1.13 1.13 1.14 1.11 1.11 1.11 1.10 1.08
1.12 1.13 1.12 1.14 1.18 1.17 1.22 1.26 1.29 1.26 1.26 1.25 1.22 1.27 1.28 1.21 1.11 1.15 1.15 1.12 1.06 0.92 0.88 0.89 0.87 0.89 0.99 1.07 1.06 1.09 1.05 1.02 0.96 1.13 1.08 1.04 1.07 1.04 1.03 1.03 1.01 0.99 0.95
1.02 0.99 1.00 1.01 0.99 1.02 1.08 1.13 1.20 1.23 1.21 1.23 1.23 1.18 1.15 1.08 1.10 1.05 1.00 0.98 0.98 0.97 0.97 0.98 0.99 1.00 1.01 0.99 1.03 1.05 1.05 1.01 0.98 1.02 1.03 0.96 1.01 0.96 0.96 0.93 0.88 0.84 0.78
0.94 0.94 0.93 0.93 0.92 0.94 0.99 1.03 1.05 1.03 1.00 0.99 0.98 0.97 0.97 0.98 1.00 1.03 1.00 1.01 1.00 1.02 1.04 1.04 1.05 1.03 1.04 1.05 1.05 1.03 1.01 0.98 0.97 0.96 0.95 0.85 0.86 0.83 0.77 0.67 0.62 0.60 0.58
0.87 0.88 0.89 0.90 0.91 0.93 0.98 1.00 1.01 0.98 0.94 0.93 0.94 0.96 0.98 1.01 1.05 1.08 1.04 1.00 0.98 0.98 1.01 1.01 1.03 1.01 0.98 1.01 1.00 0.97 0.91 0.86 0.74 0.79 0.71 0.63 0.56 0.51 0.50 0.48 0.49 0.48 0.47
0.87 0.87 0.88 0.90 0.93 0.94 0.98 1.01 1.00 0.98 0.94 0.93 0.94 0.96 1.00 1.02 1.04 1.04 1.01 0.97 0.93 0.92 0.93 0.94 0.95 0.94 0.93 0.90 0.83 0.78 0.71 0.60 0.55 0.46 0.48 0.44 0.42 0.41 0.37 0.44 0.44 0.44 0.42
Wind_Speed
20 21 22 23 24 24 24 24 24 22 21 27 27 27 24 23 23 21 21 20 19 18 17 16 15 14 12 11 11 11 11 10 10 10 9 9 8 7 7 6 6 6 6
20 21 22 23 24 25 25 24 24 23 24 26 30 28 25 23 22 21 21 21 20 19 18 17 16 15 13 12 12 12 11 11 11 10 10 10 9 9 8 8 8 8 8
21 21 22 23 25 25 25 24 24 22 21 26 29 29 27 25 21 22 19 20 20 20 19 19 17 16 15 13 13 13 12 12 12 11 11 11 11 11 11 11 10 10 10
21 22 23 23 24 25 26 23 24 23 24 27 27 29 28 25 23 22 20 20 21 21 20 20 18 16 16 15 14 14 13 13 13 13 13 13 13 13 13 13 12 12 12
22 22 23 24 25 26 27 26 23 22 26 27 27 28 27 26 24 21 20 20 22 22 21 21 20 18 16 16 15 16 15 15 15 15 14 14 14 14 14 15 15 15 15
24 23 24 25 25 26 24 24 23 23 24 26 28 28 26 23 22 21 22 21 22 22 22 22 21 20 18 18 17 17 17 16 16 16 16 16 16 16 16 17 17 17 18
24 24 25 25 24 27 27 27 25 25 27 27 28 26 24 24 22 21 22 21 21 22 21 21 22 20 20 20 19 19 19 18 18 18 18 18 18 19 19 20 20 21 21
26 26 25 25 25 26 32 29 28 27 30 31 29 27 23 22 22 23 22 22 22 22 22 22 22 21 21 21 21 21 20 20 20 20 20 21 21 21 22 22 23 24 25
26 26 26 26 27 28 29 27 30 29 31 31 31 29 25 22 22 22 23 23 22 22 22 22 22 22 22 22 22 23 22 22 22 22 22 23 24 25 25 26 27 27 28
26 26 26 26 27 28 29 30 31 31 33 32 32 31 28 25 24 21 23 24 23 24 23 22 21 22 22 22 22 22 23 24 24 24 24 26 27 29 30 31 30 30 31
24 25 26 27 28 29 31 31 33 34 36 34 31 31 30 25 25 22 22 23 23 23 24 23 22 23 23 23 23 23 24 24 25 25 26 27 27 28 29 30 30 30 30
24 25 26 27 29 30 32 32 35 34 38 36 33 32 31 26 25 23 20 23 23 23 23 22 23 23 23 24 24 24 24 25 25 26 26 28 27 27 27 28 30 31 30
22 24 25 27 28 30 33 33 36 35 38 36 36 34 31 28 23 22 19 20 21 20 20 22 22 23 24 25 25 25 25 25 26 27 26 25 26 26 26 27 27 28 30
21 22 24 27 29 32 35 34 33 35 36 38 37 36 32 31 24 22 19 17 18 18 18 19 22 22 22 25 26 26 26 27 27 27 27 27 27 26 27 29 29 30 31
20 21 22 25 28 30 31 34 35 35 35 37 37 34 33 30 27 24 21 20 18 19 20 20 19 23 23 24 25 26 26 27 28 29 29 29 29 30 30 32 33 36 36
19 19 20 22 24 27 31 34 32 31 36 36 36 34 32 31 29 26 24 23 22 21 22 22 21 20 21 21 22 24 26 27 29 30 31 31 33 33 35 37 37 36 36
16 16 17 19 25 25 29 33 32 34 33 37 34 33 31 30 28 28 27 27 26 24 21 22 22 21 21 23 24 27 29 30 31 32 34 35 35 38 38 37 36 37 39
11 12 13 18 23 26 29 33 32 32 34 35 32 31 30 29 29 28 28 28 29 27 25 26 27 26 26 26 28 29 29 30 31 31 32 34 36 37 37 36 36 36 37
9 7 8 12 17 19 24 28 33 31 33 31 29 28 27 29 30 30 29 28 28 28 27 26 25 25 26 26 27 28 29 29 30 30 31 32 33 31 33 34 34 36 38
9 8 9 12 14 17 19 22 25 31 30 28 26 26 26 27 28 28 27 28 27 27 27 26 26 27 28 29 28 28 28 28 29 28 26 28 29 31 32 33 35 38 40
10 10 11 13 14 14 16 20 23 27 29 28 24 23 23 24 24 25 25 26 27 26 27 27 27 27 27 27 27 27 27 27 26 27 30 32 34 34 36 38 39 39 40
11 12 12 13 13 14 16 19 20 21 23 24 24 24 23 23 24 24 25 24 25 26 26 25 26 27 27 25 25 25 28 28 31 33 35 36 36 36 38 38 39 40 41
9 10 11 12 12 11 13 16 18 19 21 21 23 23 22 22 22 23 23 24 24 24 26 28 29 29 29 30 31 33 34 34 35 35 37 36 37 39 40 41 42 43 41
13 12 11 12 12 11 13 15 17 17 17 17 18 19 20 19 20 21 22 21 22 23 25 27 27 29 31 33 33 32 32 33 33 35 36 38 39 40 40 40 40 41 42
15 14 14 14 13 12 13 14 16 17 17 16 16 17 19 21 22 23 24 24 24 24 24 25 26 27 27 29 31 33 35 35 35 35 36 36 37 38 39 40 41 41 42
16 16 15 15 15 16 16 17 19 20 19 20 20 20 20 22 23 25 26 26 25 26 26 26 26 26 26 28 29 30 31 32 33 34 35 36 37 38 39 40 41 43 44
Wind_Direction
257 252 248 243 240 239 242 245 238 247 237 225 218 213 215 213 212 211 212 211 210 212 207 206 205 206 207 207 207 204 203 202 200 203 206 211 217 223 233 243 256 264 270
259 253 248 246 242 243 241 243 239 241 241 224 213 212 212 207 208 211 213 213 212 210 208 207 208 209 210 211 211 208 208 208 209 212 217 222 229 236 244 251 260 266 271
257 255 250 247 244 243 242 242 235 242 231 211 210 210 209 211 212 208 210 212 210 209 209 208 210 212 214 215 215 213 214 216 218 223 227 233 240 245 250 255 262 267 271
257 257 252 249 244 244 239 238 233 235 218 207 204 209 209 209 211 208 213 213 211 210 211 212 213 217 218 219 220 220 223 224 227 231 236 241 246 251 255 258 263 267 271
258 259 255 251 246 241 239 235 234 226 211 205 207 205 207 211 213 214 216 214 212 213 214 216 217 220 223 224 226 227 230 233 235 238 242 247 251 255 258 260 264 267 271
257 259 257 250 244 237 235 224 223 216 211 201 202 204 202 209 215 218 217 216 215 217 217 219 222 226 229 229 230 233 235 238 241 244 247 251 254 257 260 262 265 269 272
258 259 257 247 241 237 231 221 220 214 207 201 192 197 207 213 215 215 214 216 217 217 219 223 228 231 232 233 235 237 240 243 245 248 251 255 257 261 262 265 268 271 274
258 260 252 243 240 238 226 226 222 212 207 204 207 207 208 212 214 216 217 218 219 219 223 227 231 234 234 236 238 240 244 247 249 252 255 257 260 264 266 268 271 272 274
258 258 247 242 239 232 231 225 213 211 207 207 209 207 208 216 212 218 220 221 221 223 227 230 234 236 236 239 241 244 246 249 252 255 259 262 265 267 268 270 273 274 276
260 254 245 242 240 235 228 222 216 213 210 211 209 212 216 216 215 222 223 223 228 228 231 234 237 237 239 241 244 246 249 251 254 258 262 265 269 271 271 272 272 274 275
259 252 246 244 240 234 226 223 220 217 211 209 213 211 213 213 216 223 225 227 229 230 234 238 239 240 243 244 246 249 251 254 257 260 265 269 273 273 273 273 273 273 276
257 253 249 244 238 232 224 223 219 219 210 214 214 211 212 215 219 220 226 227 229 232 235 238 241 245 245 246 249 251 253 257 259 263 268 270 273 275 275 275 274 273 272
257 254 248 242 235 231 222 220 216 215 212 212 212 211 212 214 218 219 227 229 230 233 236 240 244 246 249 250 249 251 256 258 262 266 268 270 272 274 276 278 277 276 275
258 254 250 243 237 231 221 219 214 211 215 211 209 210 213 216 219 221 224 223 227 236 242 247 243 248 251 251 252 255 258 261 263 265 268 271 272 274 279 278 278 278 278
260 257 252 243 235 218 216 212 210 212 210 208 208 212 214 215 220 223 226 233 236 241 242 244 252 253 255 255 255 256 258 262 265 268 268 270 270 274 280 281 282 277 278
263 260 249 239 221 215 213 207 210 209 205 206 209 211 214 219 223 226 231 238 244 246 247 253 253 256 255 256 256 258 262 266 269 270 270 270 272 276 281 282 282 281 277
261 254 247 228 213 213 214 210 209 209 207 206 209 211 217 220 224 230 237 242 245 248 250 249 252 256 257 259 263 265 268 271 270 272 272 273 273 279 282 283 282 280 280
254 248 238 228 217 221 214 207 207 203 203 203 211 217 222 223 229 235 241 244 243 246 249 252 254 260 261 264 269 271 271 272 273 274 274 273 276 279 281 283 283 283 283
236 236 214 199 203 201 197 203 203 203 201 209 215 218 224 230 236 238 240 241 243 245 250 253 256 258 263 267 271 272 273 274 274 275 276 277 279 281 283 283 284 286 287
223 212 195 185 177 182 188 191 198 204 208 210 221 228 231 232 233 237 237 239 242 245 249 253 255 261 266 269 271 273 273 274 276 276 276 277 280 284 286 285 287 288 289
216 206 195 186 187 185 190 197 203 207 211 216 220 227 231 231 235 235 238 240 243 248 251 255 259 263 266 268 270 272 272 276 275 276 278 280 282 283 287 288 289 289 290
211 207 205 207 202 204 208 205 206 210 213 216 223 229 234 236 237 238 242 244 246 249 252 256 261 265 268 268 272 273 277 277 278 281 281 281 282 284 287 288 290 291 292
198 195 195 197 200 208 212 213 215 217 220 225 227 232 233 235 239 239 241 243 248 254 257 260 264 266 270 271 274 276 277 279 279 282 282 281 282 284 287 289 290 290 290
214 211 206 207 210 216 216 214 211 212 215 220 225 229 232 235 239 239 241 246 252 258 262 264 266 270 273 275 275 277 278 280 281 283 284 283 285 286 287 289 291 292 292
219 218 219 220 221 224 222 219 218 219 221 225 230 233 237 242 246 246 249 251 256 261 265 268 271 273 276 279 281 278 281 282 282 283 287 286 287 288 289 289 291 292 293
221 223 225 229 231 233 234 233 231 230 231 236 241 245 250 250 250 251 253 255 257 260 265 268 274 276 279 282 284 283 283 284 284 285 288 287 289 290 290 290 291 292 294